Orbital Elements at Epoch 2459000.5 (2020-May-31.0) TDB
Reference: JPL 17 (heliocentric ecliptic J2000)
Element | Value | Uncertainty (1-sigma) | Units |
e | .1556362430182262 | 5.9849e-08 | |
a | 2.659476157527238 | 1.7083e-08 | au |
q | 2.24556527997315 | 1.6239e-07 | au |
i | 11.65879414876668 | 5.5695e-06 | deg |
node | 10.64292717560081 | 2.1382e-05 | deg |
peri | 171.2953603347479 | 2.6138e-05 | deg |
M | 298.9839550815772 | 1.9196e-05 | deg |
tp | 2459268.993719291016 (2021-Feb-23.49371929) | 8.6031e-05 | TDB |
period | 1584.136419756396 4.34 | 1.5264e-05 4.179e-08 | d yr |
n | .2272531554166021 | 2.1897e-09 | deg/d |
Q | 3.073387035081325 | 1.9742e-08 | au |
|
| | Orbit Determination Parameters
Additional Information
|